When you browse on this site, cookies collect data to enhance your experience and personalize the content and advertising you see.
Visit our Privacy Policy to learn more. By continuing to use the site, you agree to this use of cookies and data.
  • In Hungary
  • List of Countries
  • For 7 days
  • Water Temperature
  • Weather Map
  • News
  • Weather Widgets
  • user-avatar
    Login

    Hourly Weather Grigorovka

    Today, 25 January, Saturday

    Time Temperature Precipitation Wind Pressure Humidity
    00:00 -2°C° 0 mm 4 mps 730 mmHg 91%
    01:00 -3°C° 0 mm 4 mps 730 mmHg 92%
    02:00 -3°C° 0 mm 4 mps 730 mmHg 93%
    03:00 -4°C° 0 mm 5 mps 730 mmHg 91%
    04:00 -4°C° 0 mm 5 mps 729 mmHg 89%
    05:00 -4°C° 0 mm 5 mps 729 mmHg 87%
    06:00 -4°C° 0 mm 5 mps 729 mmHg 87%
    07:00 -5°C° 0 mm 5 mps 729 mmHg 88%
    08:00 -4°C° 0 mm 4 mps 728 mmHg 89%
    09:00 -5°C° 0 mm 5 mps 728 mmHg 88%
    10:00 -4°C° 0 mm 5 mps 727 mmHg 87%
    11:00 -3°C° 0 mm 6 mps 727 mmHg 86%
    12:00 -3°C° 0.3 mm 6 mps 727 mmHg 81%
    13:00 -3°C° 0.3 mm 7 mps 727 mmHg 76%
    14:00 -3°C° 0.3 mm 7 mps 726 mmHg 70%
    15:00 -4°C° 0 mm 7 mps 727 mmHg 73%
    16:00 -6°C° 0 mm 7 mps 727 mmHg 75%
    17:00 -6°C° 0 mm 7 mps 728 mmHg 78%
    18:00 -6°C° 0 mm 7 mps 728 mmHg 80%
    19:00 -7°C° 0 mm 7 mps 729 mmHg 82%
    20:00 -6°C° 0 mm 6 mps 729 mmHg 84%
    21:00 -7°C° 0.1 mm 7 mps 730 mmHg 84%
    22:00 -7°C° 0.1 mm 7 mps 731 mmHg 85%
    23:00 -7°C° 0.1 mm 7 mps 732 mmHg 85%

    Tomorrow, 26 January, Sunday

    Time Temperature Precipitation Wind Pressure Humidity
    00:00 -7°C° 0 mm 7 mps 733 mmHg 86%
    01:00 -7°C° 0 mm 7 mps 734 mmHg 87%
    02:00 -6°C° 0 mm 6 mps 735 mmHg 87%
    03:00 -6°C° 0 mm 6 mps 736 mmHg 87%
    04:00 -8°C° 0 mm 6 mps 736 mmHg 86%
    05:00 -8°C° 0 mm 6 mps 737 mmHg 85%
    06:00 -7°C° 0 mm 5 mps 738 mmHg 85%
    07:00 -7°C° 0 mm 5 mps 738 mmHg 86%
    08:00 -7°C° 0 mm 5 mps 739 mmHg 86%
    09:00 -7°C° 0 mm 5 mps 739 mmHg 85%
    10:00 -7°C° 0 mm 4 mps 739 mmHg 85%
    11:00 -5°C° 0 mm 4 mps 740 mmHg 84%
    12:00 -5°C° 0 mm 4 mps 739 mmHg 84%
    13:00 -5°C° 0 mm 4 mps 739 mmHg 85%
    14:00 -4°C° 0 mm 4 mps 739 mmHg 85%
    15:00 -5°C° 0.4 mm 5 mps 738 mmHg 88%
    16:00 -5°C° 0.4 mm 6 mps 737 mmHg 91%
    17:00 -5°C° 0.4 mm 6 mps 736 mmHg 95%
    18:00 -4°C° 0.5 mm 6 mps 735 mmHg 95%
    19:00 -3°C° 0.5 mm 6 mps 735 mmHg 96%
    20:00 -2°C° 0.5 mm 6 mps 734 mmHg 96%
    21:00 -1°C° 0.3 mm 7 mps 734 mmHg 96%
    22:00 -1°C° 0.3 mm 7 mps 734 mmHg 96%
    23:00 0°C° 0.3 mm 7 mps 734 mmHg 96%

    Day after tomorrow, 27 January, Monday

    Time Temperature Precipitation Wind Pressure Humidity
    00:00 -1°C° 0.2 mm 7 mps 734 mmHg 96%
    01:00 -1°C° 0.2 mm 6 mps 735 mmHg 96%
    02:00 0°C° 0.2 mm 5 mps 735 mmHg 95%
    03:00 -1°C° 0.1 mm 5 mps 736 mmHg 94%
    04:00 -2°C° 0.1 mm 4 mps 737 mmHg 93%
    05:00 -3°C° 0.1 mm 4 mps 738 mmHg 91%
    06:00 -4°C° 0 mm 3 mps 739 mmHg 92%
    07:00 -5°C° 0 mm 3 mps 739 mmHg 92%
    08:00 -5°C° 0 mm 2 mps 740 mmHg 93%
    09:00 -5°C° 0 mm 2 mps 741 mmHg 91%
    10:00 -5°C° 0 mm 2 mps 741 mmHg 89%
    11:00 -5°C° 0 mm 2 mps 742 mmHg 87%
    12:00 -5°C° 0 mm 2 mps 742 mmHg 86%
    13:00 -5°C° 0 mm 2 mps 742 mmHg 85%
    14:00 -5°C° 0 mm 2 mps 743 mmHg 84%
    15:00 -6°C° 0 mm 2 mps 743 mmHg 85%
    16:00 -6°C° 0 mm 2 mps 743 mmHg 85%
    17:00 -7°C° 0 mm 3 mps 743 mmHg 86%
    18:00 -7°C° 0 mm 3 mps 743 mmHg 87%
    19:00 -7°C° 0 mm 3 mps 743 mmHg 87%
    20:00 -7°C° 0 mm 3 mps 744 mmHg 87%
    21:00 -8°C° 0 mm 4 mps 743 mmHg 88%
    22:00 -8°C° 0 mm 4 mps 743 mmHg 89%
    23:00 -9°C° 0 mm 4 mps 743 mmHg 90%

    28 January, Tuesday

    Time Temperature Precipitation Wind Pressure Humidity
    00:00 -9°C° 0.1 mm 4 mps 743 mmHg 91%
    01:00 -9°C° 0.1 mm 4 mps 742 mmHg 92%
    02:00 -9°C° 0.1 mm 4 mps 742 mmHg 93%
    03:00 -9°C° 0.2 mm 4 mps 742 mmHg 93%
    04:00 -9°C° 0.2 mm 4 mps 742 mmHg 93%
    05:00 -8°C° 0.2 mm 4 mps 742 mmHg 94%
    06:00 -8°C° 0.2 mm 4 mps 741 mmHg 94%
    07:00 -8°C° 0.2 mm 4 mps 741 mmHg 94%
    08:00 -8°C° 0.2 mm 4 mps 741 mmHg 94%
    09:00 -8°C° 0.2 mm 4 mps 741 mmHg 94%
    10:00 -7°C° 0.2 mm 4 mps 741 mmHg 94%
    11:00 -7°C° 0.2 mm 4 mps 741 mmHg 94%
    12:00 -5°C° 0.2 mm 3 mps 741 mmHg 94%
    13:00 -5°C° 0.2 mm 3 mps 741 mmHg 95%
    14:00 -5°C° 0.2 mm 3 mps 740 mmHg 95%
    15:00 -4°C° 0.2 mm 3 mps 740 mmHg 96%
    16:00 -3°C° 0.2 mm 2 mps 740 mmHg 96%
    17:00 -3°C° 0.2 mm 2 mps 740 mmHg 97%
    18:00 -3°C° 0.2 mm 2 mps 740 mmHg 97%
    19:00 -2°C° 0.2 mm 2 mps 740 mmHg 97%
    20:00 -2°C° 0.2 mm 2 mps 740 mmHg 98%
    21:00 -2°C° 0.2 mm 2 mps 740 mmHg 98%
    22:00 -2°C° 0.2 mm 3 mps 740 mmHg 97%
    23:00 -1°C° 0.2 mm 3 mps 740 mmHg 97%

    29 January, Wednesday

    Time Temperature Precipitation Wind Pressure Humidity
    00:00 -2°C° 0.1 mm 3 mps 740 mmHg 97%
    01:00 -2°C° 0.1 mm 3 mps 739 mmHg 97%
    02:00 -2°C° 0.1 mm 3 mps 739 mmHg 97%
    03:00 -2°C° 0.2 mm 3 mps 739 mmHg 97%
    04:00 -2°C° 0.2 mm 3 mps 739 mmHg 97%
    05:00 -1°C° 0.2 mm 3 mps 739 mmHg 98%
    06:00 -1°C° 0.2 mm 3 mps 739 mmHg 98%
    07:00 -1°C° 0.2 mm 3 mps 739 mmHg 98%
    08:00 -1°C° 0.2 mm 3 mps 739 mmHg 98%
    09:00 0°C° 0.2 mm 3 mps 739 mmHg 98%
    10:00 0°C° 0.2 mm 3 mps 739 mmHg 98%
    11:00 0°C° 0.2 mm 3 mps 739 mmHg 98%
    12:00 0°C° 0 mm 3 mps 739 mmHg 98%
    13:00 0°C° 0 mm 3 mps 739 mmHg 98%
    14:00 0°C° 0 mm 3 mps 739 mmHg 98%
    15:00 -1°C° 0 mm 3 mps 739 mmHg 98%
    16:00 -1°C° 0 mm 3 mps 739 mmHg 98%
    17:00 -1°C° 0 mm 3 mps 739 mmHg 97%
    18:00 -1°C° 0 mm 3 mps 739 mmHg 97%
    19:00 -1°C° 0 mm 3 mps 739 mmHg 96%
    20:00 -1°C° 0 mm 3 mps 739 mmHg 96%
    21:00 -1°C° 0 mm 3 mps 738 mmHg 96%
    22:00 -2°C° 0 mm 4 mps 738 mmHg 96%
    23:00 -2°C° 0 mm 4 mps 738 mmHg 97%

    30 January, Thursday

    Time Temperature Precipitation Wind Pressure Humidity
    00:00 -2°C° 0 mm 4 mps 738 mmHg 97%
    01:00 -2°C° 0 mm 4 mps 738 mmHg 97%
    02:00 -2°C° 0 mm 4 mps 738 mmHg 97%
    03:00 -2°C° 0 mm 4 mps 737 mmHg 96%
    04:00 -2°C° 0 mm 4 mps 737 mmHg 96%
    05:00 -2°C° 0 mm 4 mps 737 mmHg 95%
    06:00 -2°C° 0 mm 4 mps 737 mmHg 95%
    07:00 -2°C° 0 mm 5 mps 737 mmHg 94%
    08:00 -2°C° 0 mm 5 mps 736 mmHg 94%
    09:00 -2°C° 0 mm 5 mps 736 mmHg 93%
    10:00 -2°C° 0 mm 5 mps 736 mmHg 92%
    11:00 -4°C° 0 mm 5 mps 736 mmHg 91%
    12:00 -4°C° 0 mm 5 mps 736 mmHg 92%
    13:00 -4°C° 0 mm 5 mps 735 mmHg 93%
    14:00 -4°C° 0 mm 5 mps 735 mmHg 94%
    15:00 -4°C° 0.1 mm 5 mps 735 mmHg 94%
    16:00 -4°C° 0.1 mm 5 mps 734 mmHg 94%
    17:00 -5°C° 0.1 mm 5 mps 734 mmHg 94%
    18:00 -5°C° 0.2 mm 5 mps 734 mmHg 94%
    19:00 -5°C° 0.2 mm 5 mps 734 mmHg 95%
    20:00 -6°C° 0.2 mm 5 mps 733 mmHg 95%
    21:00 -6°C° 0.2 mm 5 mps 733 mmHg 94%
    22:00 -6°C° 0.2 mm 5 mps 733 mmHg 94%
    23:00 -5°C° 0.2 mm 4 mps 733 mmHg 94%
    Show more